Vertical_Velocity
-1 10 0 1 1 1 2 3 1 -4 -1 8 -2 -1 -3 -2 4 2 1 2 0 11 -0 -3 -1 0 -7 7 9 3 1 -2 -1 5 5 5 3 1 4 1 -2 -0 -2 -3
7 1 2 0 1 2 1 1 -4 -3 -1 8 -1 -4 -1 0 -5 -2 -0 1 -0 8 4 3 6 4 8 -2 13 6 10 2 1 -3 2 -6 -4 -1 -1 0 -1 1 -1 -1
5 -3 -0 3 -1 4 -1 2 -1 5 1 2 4 -3 3 1 2 3 -2 5 15 6 1 -1 -7 -1 10 -9 -11 3 1 -4 -8 1 1 -1 -1 4 0 -0 -0 -3 1 -1
2 1 1 0 1 3 2 1 1 1 5 6 5 -7 1 2 2 0 -1 -4 1 -1 -0 7 11 10 -9 7 14 -6 -3 -6 -4 -6 4 -1 -7 3 -1 -1 -2 0 -2 2
-1 -0 -0 1 3 2 6 1 1 1 1 5 -2 7 10 -1 3 2 1 2 3 4 4 5 6 11 15 -2 14 -23 1 -5 -6 -1 0 -5 -7 -3 -4 1 -4 2 2 -2
-2 -2 3 3 -0 1 1 3 2 1 3 7 2 6 5 1 6 -0 0 2 2 2 2 1 2 4 3 -14 -12 3 4 -6 -3 0 -5 -4 -1 1 2 3 -3 2 2 1
2 2 2 0 5 4 3 2 -3 -1 4 -0 1 3 11 1 1 3 0 3 2 2 1 2 2 -2 -12 -11 -7 -9 -0 -1 -1 -0 0 2 -1 -1 4 -2 2 -5 -1 1
2 15 2 0 3 6 1 5 4 1 2 -3 -1 1 13 2 1 0 1 0 1 2 2 6 1 -6 1 0 2 -1 1 -2 1 -3 1 -1 -4 -1 -4 -1 -3 -2 4 -4
1 4 3 -3 1 7 7 4 6 4 0 8 -1 7 6 -0 1 2 2 2 8 1 -0 -5 -5 9 -1 -0 1 3 0 4 -2 -3 -3 -6 1 -0 -5 -1 4 5 1 -5
0 4 1 2 3 4 7 5 9 1 0 -1 -1 1 5 -3 -0 2 3 3 -2 -2 -8 -7 0 3 3 -1 -1 0 -1 -3 -4 -4 -1 -0 5 -1 -4 4 4 -1 -4 -1
0 5 9 6 1 2 1 1 -0 0 -1 1 0 5 5 3 -0 -1 0 -1 1 -1 -0 4 4 1 2 -1 1 -2 -0 -2 1 2 1 1 -7 -3 1 -0 -2 -2 -3 2
2 1 1 4 3 0 1 1 -1 1 1 0 3 5 1 0 -1 -3 1 -6 2 3 5 -2 -4 -1 2 0 2 4 1 1 1 0 -1 -3 -1 -2 -3 -2 1 1 2 -0
0 1 2 10 12 5 0 1 0 -1 -0 -1 2 5 0 -1 1 5 -2 2 4 -1 -4 2 3 -1 1 3 4 2 3 2 0 -1 -3 -4 3 -3 -2 4 1 4 -2 0
-1 0 4 4 8 1 1 0 0 1 1 -1 -0 1 2 2 -0 2 1 0 -1 -1 -0 -0 1 1 2 1 1 3 4 0 -0 -2 -4 0 5 1 -3 -0 4 1 -2 2
1 -1 -2 2 0 -1 0 0 0 0 -0 2 1 0 2 1 -0 1 0 -1 5 0 1 2 1 2 -1 -1 -1 -1 -3 -2 -2 -2 -2 1 1 2 -0 3 2 -1 -0 3
1 3 -1 3 1 -1 -0 0 -0 0 1 0 0 2 -2 1 1 2 -0 2 1 2 3 -1 -3 -0 -2 0 -2 -2 0 -0 1 -2 1 0 -3 1 -1 -1 -0 1 -2 2
-1 -2 2 3 -0 0 5 -2 0 1 0 3 2 5 0 3 0 3 2 0 2 -0 1 -2 -1 -2 -1 1 2 -0 1 -1 -1 1 -2 1 -4 -2 0 -1 -2 -1 -1 -0
-2 -1 -0 1 3 3 7 0 -0 -1 -0 0 0 1 2 1 2 2 1 -1 -2 -4 -2 -1 2 1 -1 1 0 2 3 -1 -1 -0 -2 -1 -1 -1 -1 -0 -3 -1 -3 -3
-2 -1 -0 -1 -0 3 4 1 -0 2 4 1 -1 1 3 -2 -1 4 -4 -1 -0 0 1 1 2 -3 2 0 -0 -2 -0 0 -1 -1 -3 -1 -3 0 1 -1 1 -2 -1 1
0 -0 -3 2 1 -0 4 1 -3 2 5 2 -1 1 -1 -0 2 3 -2 3 1 0 2 -0 -2 -0 -0 -1 -1 -2 -2 -2 -3 -3 -1 0 1 -1 -1 -0 0 2 1 1
2 1 -1 0 0 5 3 0 -0 9 16 0 -1 1 1 -1 4 -4 1 0 -1 -0 -1 1 1 -0 -0 -2 -1 -2 1 -1 0 1 -0 -1 -1 -1 1 -0 -2 -2 -1 0
-3 -2 0 2 -0 3 0 4 6 7 4 -0 1 0 -4 -3 2 1 0 1 1 -0 -0 -1 1 -3 -1 -1 2 -0 0 2 -1 -0 1 -1 -1 -0 1 -0 -1 -0 -1 -0
5 3 -2 7 7 4 5 -3 3 0 -2 3 -4 1 -1 -2 1 0 1 1 -3 -1 -0 -2 -1 -0 -1 -1 -1 -0 1 1 0 -1 -1 -1 1 0 -1 -2 -2 -1 -0 -0
2 -1 -3 -5 11 3 1 3 -1 0 -1 -0 1 -2 -1 -3 -1 0 0 -2 -0 -1 -1 0 1 1 1 -0 -1 -1 -0 -0 1 -0 -1 -1 -1 -2 -1 -0 -1 -1 -2 -2
2 -3 -1 8 7 3 5 1 -0 -1 -2 -1 0 -1 -2 -2 0 -1 -2 -2 -1 0 1 -0 -1 -1 -1 -1 -0 -1 -1 -1 0 0 -0 -0 -1 -1 -1 -1 -2 -1 1 -0
-1 -5 -4 -3 -8 -1 0 2 -1 -3 -0 -1 -3 -1 -0 -3 -3 -2 -1 0 2 -0 -1 -1 -1 -1 -1 -1 -0 -0 -0 -0 -0 1 -2 -1 -0 0 0 -0 -0 -0 1 2
Height
1507 1504 1500 1496 1498 1499 1499 1497 1494 1487 1487 1495 1491 1489 1486 1497 1503 1505 1508 1512 1518 1521 1524 1525 1527 1530 1535 1540 1539 1540 1541 1542 1545 1546 1545 1545 1544 1543 1540 1536 1533 1531 1528 1527
1504 1501 1498 1499 1500 1499 1497 1496 1491 1485 1487 1496 1485 1484 1483 1488 1496 1502 1507 1510 1514 1520 1523 1524 1525 1527 1532 1538 1540 1540 1540 1541 1542 1544 1542 1541 1541 1540 1536 1534 1531 1528 1526 1523
1503 1498 1501 1500 1495 1497 1493 1492 1489 1491 1491 1491 1489 1481 1481 1489 1495 1502 1508 1511 1513 1521 1521 1523 1526 1531 1530 1534 1540 1538 1540 1541 1544 1543 1541 1540 1540 1537 1534 1533 1531 1528 1524 1521
1499 1499 1500 1495 1493 1493 1492 1489 1490 1491 1492 1488 1487 1493 1477 1489 1498 1506 1516 1518 1520 1522 1523 1525 1528 1529 1534 1537 1540 1539 1542 1543 1543 1543 1540 1537 1536 1536 1532 1529 1528 1525 1521 1519
1496 1498 1496 1494 1495 1494 1492 1492 1491 1490 1489 1491 1482 1493 1484 1490 1505 1514 1519 1521 1524 1526 1528 1531 1534 1537 1534 1537 1537 1542 1544 1544 1543 1541 1539 1536 1534 1533 1531 1527 1526 1523 1521 1517
1494 1497 1497 1494 1496 1495 1494 1492 1490 1490 1487 1496 1489 1493 1496 1510 1518 1513 1523 1525 1528 1530 1532 1534 1536 1536 1536 1538 1540 1541 1542 1542 1543 1540 1538 1535 1534 1532 1530 1526 1524 1524 1521 1516
1492 1493 1495 1497 1493 1493 1490 1489 1496 1499 1495 1501 1495 1495 1521 1523 1523 1519 1525 1528 1532 1535 1537 1538 1539 1538 1540 1540 1540 1541 1543 1542 1542 1540 1537 1534 1531 1529 1527 1524 1523 1520 1519 1514
1494 1498 1496 1499 1497 1495 1494 1494 1500 1512 1501 1497 1486 1497 1523 1528 1529 1528 1528 1531 1534 1537 1539 1540 1539 1541 1542 1541 1541 1542 1543 1542 1541 1539 1536 1533 1530 1527 1525 1523 1520 1517 1514 1511
1497 1498 1501 1502 1500 1500 1493 1494 1499 1501 1500 1504 1491 1519 1528 1530 1530 1531 1531 1534 1536 1538 1539 1540 1541 1542 1542 1542 1543 1542 1541 1542 1539 1537 1534 1532 1529 1525 1522 1519 1516 1514 1510 1509
1497 1500 1503 1503 1502 1501 1499 1503 1503 1498 1522 1519 1496 1495 1522 1527 1529 1533 1533 1535 1538 1540 1541 1542 1541 1541 1541 1541 1540 1540 1540 1539 1537 1535 1533 1530 1526 1521 1519 1517 1513 1510 1508 1506
1497 1499 1501 1501 1503 1506 1502 1502 1508 1510 1530 1523 1513 1518 1530 1533 1528 1532 1535 1537 1538 1540 1540 1541 1541 1541 1541 1540 1540 1539 1538 1537 1536 1533 1530 1526 1522 1520 1518 1514 1511 1509 1506 1502
1500 1499 1502 1505 1510 1510 1508 1511 1515 1526 1530 1528 1520 1525 1536 1535 1535 1537 1537 1539 1539 1539 1539 1541 1541 1540 1540 1539 1539 1538 1537 1536 1532 1530 1527 1524 1522 1518 1514 1511 1509 1506 1502 1498
1500 1501 1504 1506 1510 1511 1510 1515 1517 1520 1526 1534 1527 1532 1537 1537 1535 1537 1538 1539 1539 1540 1541 1541 1541 1540 1540 1539 1538 1536 1535 1532 1529 1527 1525 1523 1520 1516 1512 1509 1506 1503 1498 1495
1501 1503 1500 1500 1506 1509 1513 1517 1518 1517 1522 1523 1529 1531 1527 1535 1538 1537 1538 1539 1539 1540 1541 1542 1542 1542 1541 1539 1537 1536 1533 1531 1528 1526 1523 1521 1517 1512 1509 1505 1503 1499 1496 1492
1500 1505 1507 1509 1512 1512 1515 1517 1517 1517 1518 1523 1526 1525 1529 1531 1534 1536 1537 1538 1538 1541 1543 1543 1543 1543 1541 1537 1534 1533 1531 1529 1526 1524 1521 1518 1514 1509 1505 1502 1499 1495 1492 1488
1503 1509 1508 1515 1515 1515 1520 1518 1517 1518 1519 1520 1522 1524 1529 1533 1535 1536 1539 1539 1541 1544 1544 1544 1543 1540 1538 1537 1533 1531 1529 1527 1525 1523 1520 1516 1510 1506 1501 1498 1495 1491 1487 1484
1501 1505 1505 1511 1515 1517 1521 1522 1518 1522 1521 1519 1521 1523 1528 1533 1539 1541 1542 1543 1544 1546 1545 1543 1542 1542 1538 1536 1534 1531 1529 1526 1524 1522 1517 1513 1508 1505 1500 1495 1490 1486 1483 1480
1500 1502 1505 1511 1515 1524 1520 1521 1520 1520 1522 1522 1523 1527 1533 1540 1545 1546 1545 1547 1547 1545 1546 1546 1544 1542 1539 1537 1534 1531 1529 1526 1525 1522 1517 1512 1508 1503 1499 1493 1489 1484 1481 1478
1500 1501 1510 1513 1510 1520 1519 1520 1520 1519 1524 1525 1527 1533 1537 1543 1544 1548 1548 1547 1548 1548 1547 1547 1545 1542 1540 1538 1534 1531 1529 1526 1524 1521 1516 1512 1508 1504 1499 1494 1489 1484 1480 1476
1504 1502 1506 1510 1508 1519 1515 1518 1521 1519 1526 1529 1532 1532 1537 1542 1540 1549 1549 1550 1550 1549 1548 1547 1546 1544 1541 1538 1535 1532 1529 1526 1522 1519 1516 1512 1508 1504 1499 1495 1490 1485 1480 1476
1503 1506 1508 1511 1508 1516 1518 1521 1521 1526 1534 1532 1533 1534 1537 1540 1544 1549 1551 1551 1551 1550 1549 1549 1547 1545 1542 1539 1536 1533 1531 1527 1523 1519 1515 1511 1508 1504 1500 1496 1492 1487 1481 1477
1498 1502 1507 1508 1510 1524 1522 1521 1522 1530 1534 1535 1537 1540 1542 1546 1549 1551 1552 1552 1552 1551 1551 1550 1547 1544 1542 1540 1537 1534 1530 1527 1523 1520 1516 1512 1508 1505 1501 1497 1493 1488 1483 1478
1503 1502 1506 1509 1514 1523 1524 1526 1530 1533 1535 1538 1540 1544 1546 1548 1551 1552 1553 1553 1553 1552 1551 1550 1548 1546 1543 1541 1537 1535 1532 1528 1525 1522 1518 1514 1510 1506 1502 1498 1494 1489 1484 1479
1506 1508 1509 1510 1524 1527 1529 1532 1534 1537 1539 1542 1544 1547 1549 1550 1552 1553 1554 1554 1553 1552 1551 1550 1549 1547 1545 1542 1539 1536 1533 1530 1527 1524 1520 1516 1511 1507 1504 1500 1495 1491 1485 1480
1501 1506 1512 1517 1527 1530 1533 1536 1538 1540 1543 1545 1547 1549 1551 1552 1554 1555 1555 1554 1553 1552 1552 1550 1549 1548 1546 1544 1540 1537 1534 1531 1529 1525 1520 1516 1512 1508 1505 1502 1497 1492 1488 1482
1502 1506 1505 1511 1522 1522 1534 1538 1541 1543 1546 1548 1550 1551 1553 1554 1555 1555 1555 1554 1555 1553 1552 1551 1549 1549 1547 1545 1542 1538 1535 1533 1530 1527 1522 1519 1515 1511 1508 1504 1499 1495 1490 1486